カタログに戻る

STARLINK-37358

運用中通信VLEO
NORAD 68699·PAYLOAD·🇺🇸 United States

打ち上げ Apr 14, 2026 から Cape Canaveral Space Force Station

Loading…

次のパス (今後24時間)

TLE

最新Source: CelesTrak SupGP

元期: Sep 15, 2026, 03:34 UTC

1 68699C 26081A   26258.14909722 -.00171900  00000+0 -50772-2 0  2582
2 68699  53.1570 231.0782 0001325  88.2670 219.0016 15.34485736    12

AllMySatでSTARLINK-37358をリアルタイム追跡

Download on the App Store